Regional Weather Roundup
Issued by NWS

Home | Current Version | Previous Version | Text Only | Print | Product List | Glossary On
Versions: 1 2 3 4 5 6 7 8 9 10 11 12 13 14 15 16 17 18 19 20 21 22 23 24 25 26 27 28 29 30 31 32 33 34 35 36 37 38 39 40 41 42 43 44 45 46 47 48 49 50
000
ASUS43 KMKX 290900
RWRWI

WISCONSIN REGIONAL WEATHER ROUNDUP
NATIONAL WEATHER SERVICE MILWAUKEE/SULLIVAN WI
400 AM CDT SAT AUG 29 2015

NOTE: "FAIR" INDICATES FEW OR NO CLOUDS BELOW 12,000 FEET WITH NO
SIGNIFICANT WEATHER AND/OR OBSTRUCTIONS TO VISIBILITY.

WIZ001-002-006>008-014>016-023>028-291000-
NORTHWEST WISCONSIN

CITY           SKY/WX    TMP DP  RH WIND       PRES   REMARKS
SUPERIOR ARPT  CLOUDY    58  56  94 CALM      30.04R
ASHLAND        CLOUDY    61  59  93 NE5       30.09R
HAYWARD        PTCLDY    54  52  93 NE6       30.08R
SIREN          CLEAR     56  55  94 SE3       30.04F
CUMBERLAND     CLOUDY    54  54 100 CALM      30.06S
RICE LAKE      PTCLDY    53  51  94 NE3       30.07S
CHETEK         CLEAR    N/A N/A N/A CALM      30.06S
LADYSMITH      CLEAR     53  51  96 CALM      30.08S FOG
EAU CLAIRE     NOT AVBL
MENOMONIE      CLEAR     53  52  97 CALM      30.04F
NEW RICHMOND   CLEAR     53  52  99 NE3       30.05S FOG
OSCEOLA        CLEAR     54  54 100 SE3       30.06F
$$

WIZ003>005-009-010-017-018-291000-
NORTH CENTRAL WISCONSIN

CITY           SKY/WX    TMP DP  RH WIND       PRES   REMARKS
MANITOWISH WTR CLOUDY    57  54  90 S5        30.10S
ARBOR VITAE    MOCLDY    57  55  95 N6        30.12R
WOODRUFF       MOCLDY    57  55  95 N6        30.12R
RHINELANDER    PTCLDY    52  51  97 CALM      30.10R
EAGLE RIVER    MOCLDY    56  55  96 N6        30.11R
LAND O LAKES   CLOUDY    59  52  78 SW5       30.10F
PHILLIPS       PTCLDY    52  52 100 NE5       30.08S
TOMAHAWK         N/A     51  50  97 CALM      30.09R FOG
MEDFORD        CLEAR     51  51  99 NE3       30.07R
MERRILL        CLEAR     52  52 100 CALM      30.08R
$$

WIZ029-030-035-036-043>047-291000-
CENTRAL WISCONSIN

CITY           SKY/WX    TMP DP  RH WIND       PRES   REMARKS
WAUSAU         CLOUDY    57  54  89 SE7       30.05S
MOSINEE        CLOUDY    54  54 100 SE7       30.07F
MARSHFIELD     CLOUDY    57  53  86 SE9       30.05S
STEVENS POINT  RAIN      56  55  99 E3        30.07F
WAUPACA        DRIZZLE   59  58  97 NE5       30.07F
WAUTOMA        NOT AVBL
WISC RAPIDS    CLOUDY    59  56  89 E3        30.06F
CAMP DOUGLAS   CLOUDY    57  57 100 E5        30.02F
$$

WIZ011>013-019>022-031-037>040-048>050-291000-
NORTHEAST WISCONSIN

CITY           SKY/WX    TMP DP  RH WIND       PRES   REMARKS
ANTIGO         CLEAR     53  53  98 S7        30.07F
SHAWANO        CLOUDY    59  56  89 CALM      30.09S
OCONTO         MOCLDY    57  57 100 S3        30.08F
STURGEON BAY   CLOUDY    57  55  94 S6        30.11F
GREEN BAY      LGT RAIN  58  57  97 CALM      30.09F FOG
MANITOWOC      NOT AVBL
APPLETON       CLOUDY    55  55 100 NE3       30.07S FOG
CLINTONVILLE   DRIZZLE   55  55 100 CALM      30.08S
OSHKOSH        LGT RAIN  59  57  93 E5        30.06F FOG
$$

WIZ032>034-041-042-053>061-291000-
SOUTHWEST WISCONSIN

CITY           SKY/WX    TMP DP  RH WIND       PRES   REMARKS
LA CROSSE      CLOUDY    60  57  89 E6        29.99F
SPARTA         CLOUDY    58  56  94 E6        30.02F
VIROQUA        CLOUDY    58  58 100 E6        30.00S
BOSCOBEL       LGT RAIN  63  61  93 VRB5      29.98S FOG
PRAIRIE DU CHI LGT RAIN  63  62  96 CALM      29.96S
PLATTEVILLE    CLOUDY    64  64  99 S8        29.97S
$$

WIZ056-057-062-063-064-067-068-291000-
SOUTH CENTRAL WISCONSIN

CITY           SKY/WX    TMP DP  RH WIND       PRES   REMARKS
REEDSBURG      DRIZZLE   57  57  99 E6        30.01F
BARABOO/DELLS  DRIZZLE   57  56  94 E12       30.02F
LONE ROCK      NOT AVBL
MINERAL POINT  LGT RAIN  64  63  94 SE5       29.98S
MADISON        RAIN      63  61  93 E8        30.01F FOG
MIDDLETON      CLOUDY    64  64  99 E7        30.01F
WATERTOWN      RAIN      61  61 100 E7        30.04S
MONROE         RAIN      63  61  94 SE12G20   29.98F
JANESVILLE     RAIN      64  63  94 S7        30.02R
$$

WIZ051-052-058>065-066-070>072-291000-
SOUTHEAST WISCONSIN

CITY           SKY/WX    TMP DP  RH WIND       PRES   REMARKS
MILWAUKEE      RAIN      64  62  93 E10       30.04F FOG
WAUKESHA       LGT RAIN  59  59 100 NE5       30.06S
MILWAUKEE/TIMM RAIN      59  55  88 E3        30.06S
RACINE         LGT RAIN  64  61  90 SE6       30.05F FOG
BURLINGTON     RAIN      62  62  97 CALM      30.04S
KENOSHA        LGT RAIN  66  64  93 S6        30.04S FOG
FOND DU LAC    RAIN      59  57  93 S3        30.07S FOG
SHEBOYGAN      HVY RAIN  57  56  96 NE8       30.08F FOG
WEST BEND      RAIN      55  55 100 CALM      30.07S
JUNEAU         RAIN      57  57  97 E9        30.07S
$$

LSZ147-162-291000-
LAKE SUPERIOR

STATION/POSITION TIME  TEMP    WIND        PRES    WAVE
                       AIR SEA DIR/SP/G            HT/PER
                 (UTC) (F)     (DEG/KT/KT) (MB)    (FT/S)
W MID LAKE BUOY  0750   58 56  200/ 16/ 17 1015.4F   2/ 4
DEVILS ISLAND    0800   62     210/ 11/ 12 1017.6F
PORT WING        0800   63      70/  1/ 19 1017.9R
SAXON HARBOR     0800   63        CALM     1018.3R
$$

LMZ867-665-643>646-291000-
LAKE MICHIGAN

STATION/POSITION TIME  TEMP    WIND        PRES    WAVE
                       AIR SEA DIR/SP/G            HT/PER
                 (UTC) (F)     (DEG/KT/KT) (MB)    (FT/S)
CHAMBERS ISLAND  0800   60     190/  7/ 11 1018.6F
S GREEN BAY BUOY 0800   59 62  190/  8/ 10 1020.6F
N MID LAKE BUOY  0750   63 64  240/ 17/ 19 1018.5F   3/ 5
NORTHPORT PIER   0800   61     200/  2/ 19 1018.6F
SISTER BAY       0819   61     220/ 13/ 16   N/A
ALGOMA LAKESHORE 0814             CALM       N/A
SHEBOYGAN LAKESH 0800   56      10/ 10/ 11 1019.4F
PORT WASHINGTON  0840   58      30/  4/  8 1019.0F
ATWATER BUOY     0800   53 48   20/  8/  8 1019.0F
MILWAUKEE LAKESH 0800   58      50/  8/  8   N/A
S MID LAKE BUOY  0750   68 68  100/ 10/ 12 1018.1F
KENOSHA   LAKESH 0800   59     150/  8/ 15 1016.9F
$$

TC  - TEMPERATURE IN CELSIUS
VSB - VISIBILITY IN STATUTE MILES
WCI - WIND CHILL INDEX
HX  - HEAT INDEX




USA.gov is the U.S. government's official web portal to all federal, state and local government web resources and services.